H1 CPF 2 NER 2024 7 14 9 196 01 glonass106 H2 0705201 9106 32275 2024 7 14 0 0 0 2024 7 17 23 45 0 900 1 1 0 0 0 1 H9 10 0 60505 0.00000 0 12366215.632 19921890.263 10051855.286 10 0 60505 900.00000 0 11504761.926 18779930.888 12874220.352 10 0 60505 1800.00000 0 10309190.128 17488797.495 15446577.227 10 0 60505 2700.00000 0 8782138.997 16111760.988 17718950.539 10 0 60505 3600.00000 0 6939592.832 14712172.565 19647183.347 10 0 60505 4500.00000 0 4810474.743 13350776.783 21193795.481 10 0 60505 5400.00000 0 2435699.335 12083152.910 22328712.392 10 0 60505 6300.00000 0 -133276.986 10957391.869 23029850.583 10 0 60505 7200.00000 0 -2836348.926 10012106.127 23283548.357 10 0 60505 8100.00000 0 -5607020.764 9274855.801 23084833.632 10 0 60505 9000.00000 0 -8374937.454 8761056.788 22437523.597 10 0 60505 9900.00000 0 -11068583.951 8473416.522 21354154.085 10 0 60505 10800.00000 0 -13618041.248 8401920.796 19855739.748 10 0 60505 11700.00000 0 -15957684.996 8524372.040 17971369.232 10 0 60505 12600.00000 0 -18028714.769 8807456.139 15737642.765 10 0 60505 13500.00000 0 -19781408.844 9208292.667 13197962.618 10 0 60505 14400.00000 0 -21177010.636 9676402.868 10401689.847 10 0 60505 15300.00000 0 -22189168.166 10156011.906 7403183.527 10 0 60505 16200.00000 0 -22804866.584 10588587.646 4260741.192 10 0 60505 17100.00000 0 -23024815.075 10915507.964 1035461.292 10 0 60505 18000.00000 0 -22863272.427 11080743.014 -2209949.679 10 0 60505 18900.00000 0 -22347319.313 11033438.138 -5412401.573 10 0 60505 19800.00000 0 -21515608.729 10730287.278 -8509651.974 10 0 60505 20700.00000 0 -20416648.116 10137595.651 -11441519.893 10 0 60505 21600.00000 0 -19106686.429 9232943.757 -14151057.615 10 0 60505 22500.00000 0 -17647295.914 8006381.707 -16585657.538 10 0 60505 23400.00000 0 -16102751.063 6461102.892 -18698072.366 10 0 60505 24300.00000 0 -14537315.338 4613567.994 -20447329.020 10 0 60505 25200.00000 0 -13012549.779 2493073.498 -21799518.960 10 0 60505 26100.00000 0 -11584756.263 140782.113 -22728450.207 10 0 60505 27000.00000 0 -10302662.091 -2391745.052 -23216149.163 10 0 60505 27900.00000 0 -9205442.169 -5044454.159 -23253203.285 10 0 60505 28800.00000 0 -8321160.637 -7751063.576 -22838938.632 10 0 60505 29700.00000 0 -7665696.173 -10441594.800 -21981429.369 10 0 60505 30600.00000 0 -7242194.868 -13045065.152 -20697339.324 10 0 60505 31500.00000 0 -7041072.661 -15492231.267 -19011598.706 10 0 60505 32400.00000 0 -7040566.355 -17718270.357 -16956922.052 10 0 60505 33300.00000 0 -7207809.455 -19665288.599 -14573176.333 10 0 60505 34200.00000 0 -7500387.135 -21284553.035 -11906610.999 10 0 60505 35100.00000 0 -7868304.612 -22538354.636 -9008964.324 10 0 60505 36000.00000 0 -8256285.800 -23401425.351 -5936462.882 10 0 60505 36900.00000 0 -8606305.152 -23861850.351 -2748733.224 10 0 60505 37800.00000 0 -8860245.666 -23921437.645 492353.383 10 0 60505 38700.00000 0 -8962570.500 -23595529.872 3723880.791 10 0 60505 39600.00000 0 -8862894.959 -22912266.398 6883108.967 10 0 60505 40500.00000 0 -8518349.634 -21911326.900 9908692.273 10 0 60505 41400.00000 0 -7895634.149 -20642209.388 12741871.145 10 0 60505 42300.00000 0 -6972673.958 -19162115.152 15327613.788 10 0 60505 43200.00000 0 -5739809.254 -17533529.569 17615685.547 10 0 60505 44100.00000 0 -4200464.709 -15821600.405 19561625.182 10 0 60505 45000.00000 0 -2371270.545 -14091423.585 21127609.065 10 0 60505 45900.00000 0 -281628.410 -12405350.186 22283186.695 10 0 60505 46800.00000 0 2027261.269 -10820427.280 23005873.393 10 0 60505 47700.00000 0 4503871.199 -9386079.621 23281588.837 10 0 60505 48600.00000 0 7088258.396 -8142128.858 23104933.006 10 0 60505 49500.00000 0 9714336.163 -7117232.861 22479294.151 10 0 60505 50400.00000 0 12312413.289 -6327810.062 21416786.519 10 0 60505 51300.00000 0 14811895.585 -5777493.463 19938018.740 10 0 60505 52200.00000 0 17144037.901 -5457136.685 18071696.941 10 0 60505 53100.00000 0 19244632.351 -5345371.352 15854069.815 10 0 60505 54000.00000 0 21056520.871 -5409691.829 13328225.987 10 0 60505 54900.00000 0 22531827.342 -5608021.057 10543256.924 10 0 60505 55800.00000 0 23633815.952 -5890690.862 7553301.497 10 0 60505 56700.00000 0 24338298.067 -6202752.390 4416490.772 10 0 60505 57600.00000 0 24634528.733 -6486518.274 1193813.775 10 0 60505 58500.00000 0 24525555.410 -6684228.105 -2052073.201 10 0 60505 59400.00000 0 24028004.685 -6740723.523 -5258069.989 10 0 60505 60300.00000 0 23171316.491 -6606018.782 -8361864.154 10 0 60505 61200.00000 0 21996458.701 -6237657.107 -11303146.109 10 0 60505 62100.00000 0 20554176.949 -5602752.370 -14024783.573 10 0 60505 63000.00000 0 18902853.970 -4679629.032 -16473932.154 10 0 60505 63900.00000 0 17106069.079 -3458990.488 -18603060.307 10 0 60505 64800.00000 0 15229960.718 -1944565.931 -20370868.939 10 0 60505 65700.00000 0 13340502.856 -153207.907 -21743088.212 10 0 60505 66600.00000 0 11500809.301 1885564.186 -22693136.672 10 0 60505 67500.00000 0 9768578.289 4130556.219 -23202630.676 10 0 60505 68400.00000 0 8193783.535 6530386.420 -23261735.007 10 0 60505 69300.00000 0 6816707.264 9025406.172 -22869348.553 10 0 60505 70200.00000 0 5666396.294 11549975.423 -22033121.983 10 0 60505 71100.00000 0 4759604.433 14034998.926 -20769307.388 10 0 60505 72000.00000 0 4100264.204 16410618.700 -19102442.828 10 0 60505 72900.00000 0 3679508.836 18608951.595 -17064877.754 10 0 60505 73800.00000 0 3476242.597 20566758.847 -14696148.075 10 0 60505 74700.00000 0 3458234.684 22227937.091 -12042212.524 10 0 60505 75600.00000 0 3583690.052 23545727.543 -9154564.607 10 0 60505 76500.00000 0 3803230.560 24484551.546 -6089236.808 10 0 60505 77400.00000 0 4062202.554 25021396.012 -2905716.052 10 0 60505 78300.00000 0 4303213.190 25146690.971 334208.778 10 0 60505 79200.00000 0 4468788.055 24864642.515 3567645.003 10 0 60505 80100.00000 0 4504037.376 24193007.228 6731816.602 10 0 60505 81000.00000 0 4359217.673 23162317.509 9765283.100 10 0 60505 81900.00000 0 3992079.958 21814590.311 12609133.017 10 0 60505 82800.00000 0 3369904.550 20201573.408 15208128.444 10 0 60505 83700.00000 0 2471135.717 18382602.733 17511778.386 10 0 60505 84600.00000 0 1286546.122 16422160.509 19475319.978 10 0 60505 85500.00000 0 -180119.105 14387236.418 21060588.520 10 0 60506 0.00000 0 -1912046.973 12344602.233 22236759.502 10 0 60506 900.00000 0 -3879816.290 10358112.631 22980948.931 10 0 60506 1800.00000 0 -6042392.231 8486147.414 23278658.950 10 0 60506 2700.00000 0 -8348618.722 6779298.011 23124062.321 10 0 60506 3600.00000 0 -10739145.410 5278397.164 22520118.539 10 0 60506 4500.00000 0 -13148710.830 4012972.532 21478519.863 10 0 60506 5400.00000 0 -15508687.400 3000188.455 20019467.904 10 0 60506 6300.00000 0 -17749782.817 2244319.521 18171284.670 10 0 60506 7200.00000 0 -19804785.635 1736777.321 15969865.174 10 0 60506 8100.00000 0 -21611240.632 1456688.535 13457981.752 10 0 60506 9000.00000 0 -23113942.248 1371999.255 10684453.252 10 0 60506 9900.00000 0 -24267141.633 1441058.235 7703195.021 10 0 60506 10800.00000 0 -25036374.732 1614611.398 4572168.177 10 0 60506 11700.00000 0 -25399834.592 1838122.444 1352248.779 10 0 60506 12600.00000 0 -25349230.170 2054320.476 -1893960.605 10 0 60506 13500.00000 0 -24890095.663 2205865.824 -5103353.223 10 0 60506 14400.00000 0 -24041537.545 2238020.286 -8213549.915 10 0 60506 15300.00000 0 -22835430.325 2101207.780 -11164115.608 10 0 60506 16200.00000 0 -21315095.352 1753356.213 -13897736.333 10 0 60506 17100.00000 0 -19533518.703 1161920.785 -16361333.471 10 0 60506 18000.00000 0 -17551183.518 305502.596 -18507093.414 10 0 60506 18900.00000 0 -15433608.123 -825006.271 -20293392.775 10 0 60506 19800.00000 0 -13248693.242 -2225799.998 -21685601.599 10 0 60506 20700.00000 0 -11063989.295 -3880085.298 -22656749.578 10 0 60506 21600.00000 0 -8943997.608 -5758560.412 -23188043.065 10 0 60506 22500.00000 0 -6947617.583 -7820427.455 -23269223.671 10 0 60506 23400.00000 0 -5125845.412 -10014896.540 -22898762.123 10 0 60506 24300.00000 0 -3519819.193 -12283119.715 -22083884.189 10 0 60506 25200.00000 0 -2159290.685 -14560474.970 -20840428.473 10 0 60506 26100.00000 0 -1061586.138 -16779105.969 -19192538.879 10 0 60506 27000.00000 0 -231098.253 -18870612.563 -17172197.570 10 0 60506 27900.00000 0 340670.720 -20768780.695 -14818607.068 10 0 60506 28800.00000 0 674517.711 -22412238.491 -12177433.019 10 0 60506 29700.00000 0 802425.089 -23746928.164 -9299921.775 10 0 60506 30600.00000 0 765972.108 -24728290.779 -6241909.385 10 0 60506 31500.00000 0 614338.994 -25323072.632 -3062740.880 10 0 60506 32400.00000 0 401988.373 -25510677.623 175879.435 10 0 60506 33300.00000 0 186122.325 -25284008.847 3411084.470 10 0 60506 34200.00000 0 24022.940 -24649763.878 6580064.260 10 0 60506 35100.00000 0 -29610.757 -23628171.140 9621285.484 10 0 60506 36000.00000 0 74783.556 -22252178.133 12475686.668 10 0 60506 36900.00000 0 379295.848 -20566125.292 15087825.638 10 0 60506 37800.00000 0 916525.461 -18623960.812 17406956.790 10 0 60506 38700.00000 0 1707966.211 -16487070.921 19388017.203 10 0 60506 39600.00000 0 2762863.959 -14221816.162 20992502.471 10 0 60506 40500.00000 0 4077595.843 -11896876.377 22189215.371 10 0 60506 41400.00000 0 5635598.556 -9580514.946 22954873.016 10 0 60506 42300.00000 0 7407849.977 -7337876.104 23274560.827 10 0 60506 43200.00000 0 9353885.356 -5228427.616 23142024.634 10 0 60506 44100.00000 0 11423306.848 -3303654.943 22559795.196 10 0 60506 45000.00000 0 13557724.496 -1605102.528 21539142.564 10 0 60506 45900.00000 0 15693048.571 -162843.272 20099860.886 10 0 60506 46800.00000 0 17762038.344 1005560.569 18269887.399 10 0 60506 47700.00000 0 19697001.288 1895562.358 16084762.558 10 0 60506 48600.00000 0 21432530.174 2515581.630 13586941.310 10 0 60506 49500.00000 0 22908163.563 2886403.188 10824968.521 10 0 60506 50400.00000 0 24070858.087 3040050.951 7852534.369 10 0 60506 51300.00000 0 24877168.589 3018185.021 4727428.073 10 0 60506 52200.00000 0 25295044.257 2870090.620 1510410.490 10 0 60506 53100.00000 0 25305164.987 2650344.978 -1735972.027 10 0 60506 54000.00000 0 24901761.548 2416261.871 -4948608.828 10 0 60506 54900.00000 0 24092884.992 2225223.042 -8065056.803 10 0 60506 55800.00000 0 22900113.989 2132010.428 -11024758.170 10 0 60506 56700.00000 0 21357712.619 2186252.961 -13770219.951 10 0 60506 57600.00000 0 19511274.254 2430096.722 -16248131.832 10 0 60506 58500.00000 0 17415908.788 2896197.500 -18410400.464 10 0 60506 59400.00000 0 15134049.450 3606121.023 -20215080.282 10 0 60506 60300.00000 0 12732971.136 4569218.706 -21627183.126 10 0 60506 61200.00000 0 10282123.974 5782026.639 -22619351.519 10 0 60506 62100.00000 0 7850393.110 7228213.458 -23172383.289 10 0 60506 63000.00000 0 5503398.404 8879079.799 -23275598.091 10 0 60506 63900.00000 0 3300945.709 10694588.962 -22927039.416 10 0 60506 64800.00000 0 1294734.805 12624886.354 -22133508.728 10 0 60506 65700.00000 0 -473581.856 14612244.978 -20910431.367 10 0 60506 66600.00000 0 -1973910.057 16593356.495 -19281556.907 10 0 60506 67500.00000 0 -3188732.811 18501873.017 -17278499.636 10 0 60506 68400.00000 0 -4113596.294 20271094.223 -14940127.684 10 0 60506 69300.00000 0 -4757043.667 21836688.148 -12311812.198 10 0 60506 70200.00000 0 -5140000.715 23139332.388 -9444550.571 10 0 60506 71100.00000 0 -5294640.099 24127165.511 -6393980.247 10 0 60506 72000.00000 0 -5262772.766 24757946.064 -3219301.864 10 0 60506 72900.00000 0 -5093834.981 25000828.633 17867.640 10 0 60506 73800.00000 0 -4842556.417 24837682.217 3254689.763 10 0 60506 74700.00000 0 -4566408.274 24263895.180 6428323.759 10 0 60506 75600.00000 0 -4322939.677 23288632.586 9477146.698 10 0 60506 76500.00000 0 -4167115.428 21934534.563 12341950.357 10 0 60506 77400.00000 0 -4148768.074 20236867.854 14967091.483 10 0 60506 78300.00000 0 -4310272.540 18242165.564 17301572.918 10 0 60506 79200.00000 0 -4684542.102 16006411.555 19300034.577 10 0 60506 80100.00000 0 -5293431.021 13592844.932 20923635.000 10 0 60506 81000.00000 0 -6146611.946 11069475.855 22140806.540 10 0 60506 81900.00000 0 -7240976.380 8506415.840 22927869.657 10 0 60506 82800.00000 0 -8560584.434 5973133.378 23269494.554 10 0 60506 83700.00000 0 -10077167.168 3535748.673 23159001.286 10 0 60506 84600.00000 0 -11751161.641 1254479.586 22598492.503 10 0 60506 85500.00000 0 -13533236.418 -818655.409 21598816.093 10 0 60507 0.00000 0 -15366244.517 -2641782.066 20179358.320 10 0 60507 900.00000 0 -17187523.884 -4184683.560 18367670.202 10 0 60507 1800.00000 0 -18931447.199 -5429817.210 16198935.953 10 0 60507 2700.00000 0 -20532117.840 -6372796.335 13715290.789 10 0 60507 3600.00000 0 -21926096.655 -7022315.469 10965002.773 10 0 60507 4500.00000 0 -23055045.955 -7399524.093 8001533.722 10 0 60507 5400.00000 0 -23868179.235 -7536876.105 4882497.488 10 0 60507 6300.00000 0 -24324413.217 -7476504.629 1668536.078 10 0 60507 7200.00000 0 -24394131.176 -7268191.882 -1577864.092 10 0 60507 8100.00000 0 -24060482.943 -6967021.040 -4793592.193 10 0 60507 9000.00000 0 -23320166.433 -6630810.512 -7916144.829 10 0 60507 9900.00000 0 -22183657.597 -6317440.210 -10884845.035 10 0 60507 10800.00000 0 -20674878.994 -6082183.867 -13642024.159 10 0 60507 11700.00000 0 -18830320.888 -5975161.000 -16134143.235 10 0 60507 12600.00000 0 -16697651.860 -6039016.800 -18312831.844 10 0 60507 13500.00000 0 -14333877.215 -6306928.354 -20135824.425 10 0 60507 14400.00000 0 -11803122.249 -6801021.592 -21567776.210 10 0 60507 15300.00000 0 -9174132.894 -7531265.811 -22580943.511 10 0 60507 16200.00000 0 -6517597.677 -8494892.489 -23155715.896 10 0 60507 17100.00000 0 -3903401.999 -9676362.992 -23280990.672 10 0 60507 18000.00000 0 -1397928.274 -11047886.835 -22954383.104 10 0 60507 18900.00000 0 938486.789 -12570469.197 -22182268.828 10 0 60507 19800.00000 0 3053833.212 -14195444.364 -20979657.980 10 0 60507 20700.00000 0 4906353.476 -15866431.525 -19369903.536 10 0 60507 21600.00000 0 6466034.180 -17521631.802 -17384249.403 10 0 60507 22500.00000 0 7715602.844 -19096371.021 -15061226.648 10 0 60507 23400.00000 0 8650989.581 -20525782.404 -12445909.130 10 0 60507 24300.00000 0 9281235.561 -21747517.261 -9589042.452 10 0 60507 25200.00000 0 9627853.233 -22704370.395 -6546062.614 10 0 60507 26100.00000 0 9723666.099 -23346710.150 -3376023.045 10 0 60507 27000.00000 0 9611177.676 -23634611.022 -140450.596 10 0 60507 27900.00000 0 9340538.992 -23539598.949 3097847.440 10 0 60507 28800.00000 0 8967200.962 -23045935.495 6276001.998 10 0 60507 29700.00000 0 8549351.200 -22151386.363 9332302.810 10 0 60507 30600.00000 0 8145243.992 -20867441.259 12207396.969 10 0 60507 31500.00000 0 7810536.648 -19218975.129 14845441.955 10 0 60507 32400.00000 0 7595745.150 -17243364.186 17195190.609 10 0 60507 33300.00000 0 7543926.973 -14989092.970 19210986.923 10 0 60507 34200.00000 0 7688689.346 -12513909.964 20853653.319 10 0 60507 35100.00000 0 8052607.463 -9882608.050 22091252.321 10 0 60507 36000.00000 0 8646119.953 -7164521.731 22899708.006 10 0 60507 36900.00000 0 9466948.816 -4430844.696 23263275.305 10 0 60507 37800.00000 0 10500069.062 -1751878.799 23174848.154 10 0 60507 38700.00000 0 11718230.263 805671.769 22636100.496 10 0 60507 39600.00000 0 13083009.032 3181249.135 21657457.245 10 0 60507 40500.00000 0 14546349.165 5322727.817 20257895.500 10 0 60507 41400.00000 0 16052525.630 7188343.700 18464579.443 10 0 60507 42300.00000 0 17540450.593 8748186.167 16312335.570 10 0 60507 43200.00000 0 18946225.071 9985191.857 13842977.974 10 0 60507 44100.00000 0 20205829.216 10895599.358 11104496.392 10 0 60507 45000.00000 0 21257838.023 11488846.660 8150122.585 10 0 60507 45900.00000 0 22046047.932 11786916.742 5037293.191 10 0 60507 46800.00000 0 22521903.286 11823159.892 1826529.339 10 0 60507 47700.00000 0 22646619.846 11640643.579 -1419744.667 10 0 60507 48600.00000 0 22392915.292 11290100.669 -4638420.095 10 0 60507 49500.00000 0 21746273.215 10827563.856 -7766935.581 10 0 60507 50400.00000 0 20705686.866 10311787.374 -10744497.271 10 0 60507 51300.00000 0 19283850.947 9801565.990 -13513263.045 10 0 60507 52200.00000 0 17506793.099 9353065.395 -16019467.346 10 0 60507 53100.00000 0 15412960.378 9017277.400 -18214464.590 10 0 60507 54000.00000 0 13051798.813 8837707.755 -20055670.959 10 0 60507 54900.00000 0 10481885.361 8848394.310 -21507386.661 10 0 60507 55800.00000 0 7768690.013 9072339.037 -22541483.236 10 0 60507 56700.00000 0 4982061.039 9520419.848 -23137943.272 10 0 60507 57600.00000 0 2193537.527 10190827.876 -23285242.828 10 0 60507 58500.00000 0 -526399.714 11069053.794 -22980569.804 10 0 60507 59400.00000 0 -3111025.532 12128423.832 -22229874.586 10 0 60507 60300.00000 0 -5499905.146 13331163.211 -21047752.332 10 0 60507 61200.00000 0 -7641162.023 14629942.746 -19457159.266 10 0 60507 62100.00000 0 -9493385.955 15969844.237 -17488968.365 10 0 60507 63000.00000 0 -11027103.202 17290662.763 -15181372.698 10 0 60507 63900.00000 0 -12225748.731 18529449.811 -12579147.557 10 0 60507 64800.00000 0 -13086101.151 19623190.972 -9732785.148 10 0 60507 65700.00000 0 -13618163.283 20511506.040 -6697518.139 10 0 60507 66600.00000 0 -13844494.368 21139258.201 -3532250.630 10 0 60507 67500.00000 0 -13799022.808 21458962.505 -298417.040 10 0 60507 68400.00000 0 -13525390.137 21432892.041 2941209.070 10 0 60507 69300.00000 0 -13074896.586 21034792.684 6123732.999 10 0 60507 70200.00000 0 -12504135.412 20251133.630 9187359.961 10 0 60507 71100.00000 0 -11872416.253 19081840.300 12072595.270 10 0 60507 72000.00000 0 -11239086.635 17540477.929 14723400.091 10 0 60507 72900.00000 0 -10660865.053 15653877.128 17088280.196 10 0 60507 73800.00000 0 -10189298.424 13461216.112 19121286.518 10 0 60507 74700.00000 0 -9868451.473 11012597.008 20782908.070 10 0 60507 75600.00000 0 -9732925.743 8367174.731 22040840.049 10 0 60507 76500.00000 0 -9806292.005 5590915.564 22870612.366 10 0 60507 77400.00000 0 -10100002.459 2754077.977 23256066.544 10 0 60507 78300.00000 0 -10612828.976 -71480.297 23189671.839 10 0 60507 79200.00000 0 -11330851.542 -2815057.685 22672674.447 10 0 60507 80100.00000 0 -12227998.015 -5409812.777 21715076.739 10 0 60507 81000.00000 0 -13267113.126 -7795305.164 20335446.656 10 0 60507 81900.00000 0 -14401512.430 -9919767.998 18560560.570 10 0 60507 82800.00000 0 -15576956.353 -11742018.220 16424886.085 10 0 60507 83700.00000 0 -16733961.698 -13232925.468 13969914.344 10 0 60507 84600.00000 0 -17810353.488 -14376378.997 11243354.453 10 0 60507 85500.00000 0 -18743949.632 -15169712.914 8298205.410 10 0 60508 0.00000 0 -19475264.947 -15623572.769 5191723.863 10 0 60508 900.00000 0 -19950120.423 -15761230.272 1984306.207 10 0 60508 1800.00000 0 -20122046.094 -15617375.534 -1261688.582 10 0 60508 2700.00000 0 -19954376.773 -15236439.659 -4483157.484 10 0 60508 3600.00000 0 -19421950.471 -14670518.949 -7617484.835 10 0 60508 4500.00000 0 -18512337.645 -13976989.798 -10603763.568 10 0 60508 5400.00000 0 -17226548.783 -13215915.955 -13383981.679 10 0 60508 6300.00000 0 -15579190.040 -12447358.526 -15904150.450 10 0 60508 7200.00000 0 -13598059.945 -11728702.901 -18115352.262 10 0 60508 8100.00000 0 -11323203.711 -11112115.795 -19974687.764 10 0 60508 9000.00000 0 -8805464.384 -10642239.723 -21446104.339 10 0 60508 9900.00000 0 -6104590.985 -10354221.930 -22501090.323 10 0 60508 10800.00000 0 -3286982.079 -10272160.462 -23119222.218 10 0 60508 11700.00000 0 -423158.128 -10408032.319 -23288555.027 10 0 60508 12600.00000 0 2414932.941 -10761148.385 -23005848.818 10 0 60508 13500.00000 0 5156665.913 -11318157.660 -22276627.673 10 0 60508 14400.00000 0 7735430.988 -12053600.459 -21115070.217 10 0 60508 15300.00000 0 10091158.254 -12930987.304 -19543733.950 10 0 60508 16200.00000 0 12172570.253 -13904358.344 -17593118.598 10 0 60508 17100.00000 0 13939070.117 -14920258.083 -15301076.625 10 0 60508 18000.00000 0 15362187.818 -15920042.761 -12712081.890 10 0 60508 18900.00000 0 16426525.354 -16842423.727 -9876370.132 10 0 60508 19800.00000 0 17130162.396 -17626140.098 -6848967.450 10 0 60508 20700.00000 0 17484506.360 -18212648.331 -3688625.268 10 0 60508 21600.00000 0 17513594.036 -18548715.396 -456682.195 10 0 60508 22500.00000 0 17252874.830 -18588806.086 2784125.257 10 0 60508 23400.00000 0 16747527.430 -18297163.395 5970879.918 10 0 60508 24300.00000 0 16050381.296 -17649493.684 9041705.406 10 0 60508 25200.00000 0 15219531.025 -16634184.826 11936967.841 10 0 60508 26100.00000 0 14315744.500 -15253005.105 14600434.282 10 0 60508 27000.00000 0 13399774.390 -13521252.380 16980365.214 10 0 60508 27900.00000 0 12529686.539 -11467346.083 19030519.839 10 0 60508 28800.00000 0 11758317.970 -9131877.926 20711054.654 10 0 60508 29700.00000 0 11130971.693 -6566159.816 21989297.977 10 0 60508 30600.00000 0 10683445.415 -3830328.419 22840385.579 10 0 60508 31500.00000 0 10440477.218 -991084.307 23247745.211 10 0 60508 32400.00000 0 10414673.692 1880841.186 23203420.730 10 0 60508 33300.00000 0 10605965.763 4713386.965 22708229.554 10 0 60508 34200.00000 0 11001615.359 7435919.485 21771750.212 10 0 60508 35100.00000 0 11576772.874 9981932.447 20412139.985 10 0 60508 36000.00000 0 12295562.341 12291577.206 18655785.769 10 0 60508 36900.00000 0 13112648.870 14313919.086 16536794.471 10 0 60508 37800.00000 0 13975222.574 16008826.073 14096332.398 10 0 60508 38700.00000 0 14825315.449 17348411.603 11381826.033 10 0 60508 39600.00000 0 15602353.405 18317971.684 8446039.541 10 0 60508 40500.00000 0 16245835.454 18916377.772 5346046.871 10 0 60508 41400.00000 0 16698026.496 19155909.719 2142118.590 10 0 60508 42300.00000 0 16906549.304 19061536.715 -1103454.445 10 0 60508 43200.00000 0 16826765.489 18669677.503 -4327577.163 10 0 60508 44100.00000 0 16423844.095 18026493.184 -7467581.790 10 0 60508 45000.00000 0 15674429.679 17185785.689 -10462450.112 10 0 60508 45900.00000 0 14567838.782 16206591.586 -13254002.162 10 0 60508 46800.00000 0 13106733.666 15150573.611 -15788027.784 10 0 60508 47700.00000 0 11307244.375 14079320.602 -18015338.867 10 0 60508 48600.00000 0 9198533.416 13051670.065 -19892721.892 10 0 60508 49500.00000 0 6821820.734 12121166.268 -21383772.613 10 0 60508 50400.00000 0 4228909.258 11333760.694 -22459597.212 10 0 60508 51300.00000 0 1480271.941 10725851.166 -23099366.995 10 0 60508 52200.00000 0 -1357220.670 10322741.455 -23290716.625 10 0 60508 53100.00000 0 -4212838.520 10137585.399 -23029978.824 10 0 60508 54000.00000 0 -7014691.168 10170859.194 -22322251.567 10 0 60508 54900.00000 0 -9692476.815 10410383.382 -21181296.813 10 0 60508 55800.00000 0 -12180168.060 10831893.184 -19629272.826 10 0 60508 56700.00000 0 -14418523.910 11400132.906 -17696305.224 10 0 60508 57600.00000 0 -16357324.657 12070428.334 -15419904.664 10 0 60508 58500.00000 0 -17957237.656 12790671.038 -12844242.110 10 0 60508 59400.00000 0 -19191237.202 13503631.177 -10019295.151 10 0 60508 60300.00000 0 -20045520.131 14149501.568 -6999881.476 10 0 60508 61200.00000 0 -20519879.650 14668565.863 -3844597.880 10 0 60508 62100.00000 0 -20627522.464 15003878.299 -614685.098 10 0 60508 63000.00000 0 -20394337.489 15103841.764 2627159.571 10 0 60508 63900.00000 0 -19857647.410 14924575.027 5817998.767 10 0 60508 64800.00000 0 -19064496.081 14431968.663 8895876.894 10 0 60508 65700.00000 0 -18069544.206 13603342.192 11801023.390 10 0 60508 66600.00000 0 -16932662.225 12428631.661 14477013.775 10 0 60508 67500.00000 0 -15716322.011 10911056.559 16871865.850 10 0 60508 68400.00000 0 -14482897.284 9067236.778 18939049.656 10 0 60508 69300.00000 0 -13291986.471 6926753.413 20638391.610 10 0 60508 70200.00000 0 -12197870.556 4531170.415 21936855.398 10 0 60508 71100.00000 0 -11247212.730 1932556.612 22809184.627 10 0 60508 72000.00000 0 -10477096.396 -808431.499 23238394.919 10 0 60508 72900.00000 0 -9913483.783 -3624827.517 23216106.002 10 0 60508 73800.00000 0 -9570159.792 -6445899.756 22742707.362 10 0 60508 74700.00000 0 -9448205.330 -9199857.747 21827354.092 10 0 60508 75600.00000 0 -9536022.186 -11816608.882 20487792.757 10 0 60508 76500.00000 0 -9809908.350 -14230451.145 18750020.247 10 0 60508 77400.00000 0 -10235159.537 -16382590.327 16647781.794 10 0 60508 78300.00000 0 -10767650.454 -18223377.249 14221917.440 10 0 60508 79200.00000 0 -11355829.012 -19714172.011 11519569.234 10 0 60508 80100.00000 0 -11943039.114 -20828757.722 8593264.345 10 0 60508 81000.00000 0 -12470073.531 -21554244.942 5499891.845 10 0 60508 81900.00000 0 -12877848.489 -21891429.489 2299593.208 10 0 60508 82800.00000 0 -13110086.196 -21854589.190 -945411.474 10 0 60508 83700.00000 0 -13115891.123 -21470728.943 -4172038.178 10 0 60508 84600.00000 0 -12852110.265 -20778306.762 -7317570.266 10 0 60508 85500.00000 0 -12285376.757 -19825495.413 -10320881.739 99